DELTA 1 DEB, 7084

Orbit data source: Space-Track

DELTA 1 DEB, 7084 is space debris in SSO originally from a launch on Tue, 06 Nov 1973 UTC launched from the Air Force Western Test Range (AFWTR). Debris objects in space refer to the collection of defunct objects orbiting the Earth. Examples of debris include non-operational satellites, rocket bodies, and fragments generated from explosions, collisions, or faulty payload assembly.

Loading next visibility...
Identifier
7084, 1973-086CC
Orbit
SSO
Country
Flag of USUS
Related business
Manufacturer
Unknown
Mission
Spacecraft
Bus & Motor
Unknown
Mass
Unknown
Launch date (UTC)
1973-11-06 (52 years ago)
Launch vehicle
Unknown
Launch site
Air Force Western Test Range (AFWTR)
Object type
Payload
Rocket body
Debris
Shape & HBR
Unknown shape, 0.2 m
Radar Cross Section
Small (<0.1 m²)

Expand to show TLE details & history
Last TLE update: 16 hours ago

TLE from 16 hours ago
0 DELTA 1 DEB
1  7084U 73086CC  26122.41417736 -.00000018  00000-0  20408-3 0  9996
2  7084 101.8575  69.4437 0153800  71.2493  42.4739 12.25195650346675
Epoch: 2026-05-02T09:56Z
TLE epoch observation values (Epoch: 2026-05-02T09:56:24.923Z)
Latitude
62.64549°
Longitude
-96.17365°
Altitude
1,491.25 km
Speed
7.164 km/s
True Right ascension
18h 13m 03s
True Declination
62° 31' 05"
Sunlit
Object was in daylight at epoch
Visualization orbit readout
Latitude
Unknown
Longitude
Unknown
Altitude
Unknown
Speed
Unknown
Apparent Right ascension
Unknown
Apparent Declination
Unknown
Sunlit
N/A
Visualization observer readout
Local Sidereal Time
09:17:48
Azimuth
Unknown
Elevation
Unknown
Doppler factor
Unknown
Orbital elements
Apogee altitude
1,689.781 km
Perigee altitude
1,445.371 km
Semi-major axis
7,945.713 km
Eccentricity
0.01538
Inclination
101.8575°
RAAN
69.4437°
Arg. of periapsis
71.2493°
True anomaly
43.681°
Mean anomaly
42.4739°
Eccentric anomaly
43.07573°
Mean motion
3.06439 °/min
Orbital period
117.48 mins
BSTAR
0.00020408
Loading maneuver chart data...
Computing Atmospheric mass density...
Loading historical data...
Loading historical data...
Loading historical data...
Loading historical data...
Loading historical data...
Loading historical data...
Loading historical data...

Documentation

Showing up to 5 results
|